QPF
0.00 0.00 0.00 0.00 0.00 0.00 0.00 0.00 0.00 0.00 0.00 0.00 0.00 0.00 0.00 0.00 0.00 0.00 0.00 0.00 0.00 0.00 0.00 0.00 0.00 0.00 0.00 0.00 0.00 0.00 0.00 0.01 0.01 0.02 0.01 0.02 0.03 0.05 0.05 0.08 0.10 0.23 0.20 0.12
0.00 0.00 0.00 0.00 0.00 0.00 0.00 0.00 0.00 0.00 0.00 0.00 0.00 0.00 0.00 0.00 0.00 0.00 0.00 0.00 0.00 0.00 0.00 0.00 0.00 0.00 0.00 0.00 0.00 0.00 0.01 0.01 0.02 0.02 0.01 0.01 0.03 0.04 0.03 0.06 0.07 0.10 0.09 0.01
0.00 0.00 0.00 0.00 0.00 0.00 0.00 0.00 0.00 0.00 0.00 0.00 0.00 0.00 0.00 0.00 0.00 0.00 0.00 0.00 0.00 0.00 0.00 0.00 0.00 0.00 0.00 0.00 0.00 0.00 0.00 0.01 0.01 0.01 0.02 0.02 0.00 0.00 0.01 0.04 0.06 0.12 0.13 0.04
0.00 0.00 0.00 0.00 0.00 0.00 0.00 0.00 0.00 0.00 0.00 0.00 0.00 0.00 0.00 0.00 0.00 0.00 0.00 0.00 0.00 0.00 0.00 0.00 0.00 0.00 0.00 0.00 0.00 0.00 0.00 0.00 0.00 0.01 0.02 0.02 0.02 0.00 0.00 0.01 0.10 0.20 0.22 0.17
0.00 0.00 0.00 0.00 0.00 0.00 0.00 0.00 0.00 0.00 0.00 0.00 0.00 0.00 0.00 0.00 0.00 0.00 0.00 0.00 0.00 0.00 0.00 0.00 0.00 0.00 0.00 0.00 0.00 0.00 0.00 0.00 0.00 0.01 0.03 0.02 0.01 0.00 0.00 0.01 0.05 0.11 0.24 0.33
0.00 0.00 0.00 0.00 0.00 0.00 0.00 0.00 0.00 0.00 0.00 0.00 0.00 0.00 0.00 0.00 0.00 0.00 0.00 0.00 0.00 0.00 0.00 0.00 0.00 0.00 0.00 0.00 0.00 0.00 0.00 0.00 0.00 0.00 0.01 0.01 0.01 0.00 0.00 0.00 0.01 0.03 0.12 0.17
0.00 0.00 0.00 0.00 0.00 0.00 0.00 0.00 0.00 0.00 0.00 0.00 0.00 0.00 0.00 0.00 0.00 0.00 0.00 0.00 0.00 0.00 0.00 0.00 0.00 0.00 0.00 0.00 0.00 0.00 0.00 0.00 0.00 0.00 0.00 0.00 0.00 0.00 0.00 0.00 0.00 0.00 0.05 0.19
0.00 0.00 0.00 0.00 0.00 0.00 0.00 0.00 0.00 0.00 0.00 0.00 0.00 0.00 0.00 0.00 0.00 0.00 0.00 0.00 0.00 0.00 0.00 0.00 0.00 0.00 0.00 0.00 0.00 0.00 0.00 0.00 0.00 0.00 0.00 0.00 0.00 0.00 0.00 0.00 0.00 0.00 0.03 0.06
0.00 0.00 0.00 0.00 0.00 0.00 0.00 0.00 0.00 0.00 0.00 0.00 0.00 0.00 0.00 0.00 0.00 0.00 0.00 0.00 0.00 0.00 0.00 0.00 0.00 0.00 0.00 0.00 0.00 0.00 0.00 0.00 0.00 0.00 0.00 0.00 0.00 0.00 0.00 0.00 0.00 0.00 0.00 0.02
0.00 0.00 0.00 0.00 0.00 0.00 0.00 0.00 0.00 0.00 0.00 0.00 0.00 0.00 0.00 0.00 0.00 0.00 0.00 0.00 0.00 0.00 0.00 0.00 0.00 0.00 0.00 0.00 0.00 0.00 0.00 0.00 0.00 0.00 0.00 0.00 0.00 0.00 0.00 0.00 0.00 0.00 0.00 0.00
0.00 0.00 0.00 0.00 0.00 0.00 0.00 0.00 0.00 0.00 0.00 0.00 0.00 0.00 0.00 0.00 0.00 0.00 0.00 0.00 0.00 0.00 0.00 0.00 0.00 0.00 0.00 0.00 0.00 0.00 0.00 0.00 0.00 0.00 0.00 0.00 0.00 0.00 0.00 0.00 0.00 0.00 0.00 0.00
0.00 0.00 0.00 0.00 0.00 0.00 0.00 0.00 0.00 0.00 0.00 0.00 0.00 0.00 0.00 0.00 0.00 0.00 0.00 0.00 0.00 0.00 0.00 0.00 0.00 0.00 0.00 0.00 0.00 0.00 0.00 0.00 0.00 0.00 0.00 0.00 0.00 0.00 0.00 0.00 0.00 0.00 0.00 0.00
0.00 0.00 0.00 0.00 0.00 0.00 0.00 0.00 0.00 0.00 0.00 0.00 0.00 0.00 0.00 0.00 0.00 0.00 0.00 0.00 0.00 0.00 0.00 0.00 0.00 0.00 0.00 0.00 0.00 0.00 0.00 0.00 0.00 0.00 0.00 0.00 0.00 0.00 0.00 0.00 0.00 0.00 0.00 0.00
0.00 0.00 0.00 0.00 0.00 0.00 0.00 0.00 0.00 0.00 0.00 0.00 0.00 0.00 0.00 0.00 0.00 0.00 0.00 0.00 0.00 0.00 0.00 0.00 0.00 0.00 0.00 0.00 0.00 0.00 0.00 0.00 0.00 0.00 0.00 0.00 0.00 0.00 0.00 0.00 0.00 0.00 0.00 0.00
0.00 0.00 0.00 0.00 0.00 0.00 0.00 0.00 0.00 0.00 0.00 0.00 0.00 0.00 0.00 0.00 0.00 0.00 0.00 0.00 0.00 0.00 0.00 0.00 0.00 0.00 0.00 0.00 0.00 0.00 0.00 0.00 0.00 0.00 0.00 0.00 0.00 0.00 0.00 0.00 0.00 0.00 0.00 0.00
0.00 0.00 0.00 0.00 0.00 0.00 0.00 0.00 0.00 0.00 0.00 0.00 0.00 0.00 0.00 0.00 0.00 0.00 0.00 0.00 0.00 0.00 0.00 0.00 0.00 0.00 0.00 0.00 0.00 0.00 0.00 0.00 0.00 0.00 0.00 0.00 0.00 0.00 0.00 0.00 0.00 0.00 0.00 0.00
0.00 0.00 0.00 0.00 0.00 0.00 0.00 0.00 0.00 0.00 0.00 0.00 0.00 0.00 0.00 0.00 0.00 0.00 0.00 0.00 0.00 0.00 0.00 0.00 0.00 0.00 0.00 0.00 0.00 0.00 0.00 0.00 0.00 0.00 0.00 0.00 0.00 0.00 0.00 0.00 0.00 0.00 0.00 0.00
0.00 0.00 0.00 0.00 0.00 0.00 0.00 0.00 0.00 0.00 0.00 0.00 0.00 0.00 0.00 0.00 0.00 0.00 0.00 0.00 0.00 0.00 0.00 0.00 0.00 0.00 0.00 0.00 0.00 0.00 0.00 0.00 0.00 0.00 0.00 0.00 0.00 0.00 0.00 0.00 0.00 0.00 0.00 0.00
0.00 0.00 0.01 0.00 0.00 0.00 0.00 0.00 0.00 0.00 0.00 0.00 0.00 0.00 0.00 0.00 0.00 0.00 0.00 0.00 0.00 0.00 0.00 0.00 0.00 0.00 0.00 0.00 0.00 0.00 0.00 0.00 0.00 0.00 0.00 0.00 0.00 0.00 0.00 0.00 0.00 0.00 0.00 0.00
0.00 0.01 0.02 0.01 0.01 0.00 0.00 0.00 0.00 0.00 0.00 0.00 0.00 0.00 0.00 0.00 0.00 0.00 0.00 0.00 0.00 0.00 0.00 0.00 0.00 0.00 0.00 0.00 0.00 0.00 0.00 0.00 0.00 0.00 0.00 0.00 0.00 0.00 0.00 0.00 0.00 0.00 0.00 0.00
0.00 0.01 0.02 0.01 0.01 0.00 0.00 0.00 0.00 0.00 0.00 0.00 0.00 0.00 0.00 0.00 0.00 0.00 0.00 0.00 0.00 0.00 0.00 0.00 0.00 0.00 0.00 0.00 0.00 0.00 0.00 0.00 0.00 0.00 0.00 0.00 0.00 0.00 0.00 0.00 0.00 0.00 0.00 0.00
0.00 0.00 0.00 0.00 0.01 0.00 0.00 0.00 0.00 0.00 0.00 0.00 0.00 0.00 0.00 0.00 0.00 0.00 0.00 0.00 0.00 0.00 0.00 0.00 0.00 0.00 0.00 0.00 0.00 0.00 0.00 0.00 0.00 0.00 0.00 0.00 0.00 0.00 0.00 0.00 0.00 0.00 0.00 0.00
0.00 0.00 0.00 0.00 0.00 0.00 0.00 0.00 0.00 0.00 0.00 0.00 0.00 0.00 0.00 0.00 0.00 0.00 0.00 0.00 0.00 0.00 0.00 0.00 0.00 0.00 0.00 0.00 0.00 0.00 0.00 0.00 0.00 0.00 0.00 0.00 0.00 0.00 0.00 0.00 0.00 0.00 0.00 0.00
0.00 0.00 0.00 0.00 0.00 0.00 0.00 0.00 0.00 0.00 0.00 0.00 0.00 0.00 0.00 0.00 0.00 0.00 0.00 0.00 0.00 0.00 0.00 0.00 0.00 0.00 0.00 0.00 0.00 0.00 0.00 0.00 0.00 0.00 0.00 0.00 0.00 0.00 0.00 0.00 0.00 0.00 0.00 0.00
0.00 0.00 0.00 0.00 0.00 0.00 0.00 0.00 0.00 0.00 0.00 0.00 0.00 0.00 0.00 0.00 0.00 0.00 0.00 0.00 0.00 0.00 0.00 0.00 0.00 0.00 0.00 0.00 0.00 0.00 0.00 0.00 0.00 0.00 0.00 0.00 0.00 0.00 0.00 0.00 0.00 0.00 0.00 0.00
0.00 0.00 0.00 0.00 0.00 0.00 0.00 0.00 0.00 0.00 0.00 0.00 0.00 0.00 0.00 0.00 0.00 0.00 0.00 0.00 0.00 0.00 0.00 0.00 0.00 0.00 0.00 0.00 0.00 0.00 0.00 0.00 0.00 0.00 0.00 0.00 0.00 0.00 0.00 0.00 0.00 0.00 0.00 0.00
MSLP
1020.34 1020.94 1020.91 1020.63 1020.57 1020.37 1020.53 1020.71 1020.83 1020.62 1020.08 1020.08 1019.98 1020.38 1020.64 1020.64 1020.48 1020.65 1020.73 1020.76 1020.31 1019.69 1019.35 1018.89 1018.41 1017.79 1016.97 1016.10 1015.41 1015.01 1014.30 1014.47 1015.03 1015.49 1015.91 1016.45 1016.77 1017.24 1017.57 1017.89 1018.35 1018.89 1019.33 1019.66
1021.22 1020.94 1020.43 1020.56 1020.61 1020.74 1020.74 1020.83 1020.93 1020.72 1020.38 1020.55 1020.62 1021.18 1021.37 1021.34 1021.47 1021.66 1021.65 1021.43 1021.08 1020.47 1019.85 1019.39 1019.18 1018.55 1017.78 1017.16 1016.47 1015.77 1015.25 1014.70 1014.94 1015.35 1015.92 1016.29 1016.75 1017.27 1017.54 1017.86 1018.48 1018.92 1019.22 1019.74
1021.32 1020.66 1020.43 1020.62 1020.80 1020.95 1020.89 1020.87 1020.87 1021.16 1021.02 1020.99 1021.36 1021.56 1021.73 1022.12 1022.14 1022.18 1022.33 1022.37 1021.88 1021.43 1020.84 1020.33 1019.83 1019.36 1018.59 1017.90 1017.34 1016.67 1016.00 1015.11 1015.07 1015.43 1015.98 1016.60 1017.04 1017.55 1017.91 1018.30 1018.93 1019.18 1019.55 1019.76
1021.35 1020.64 1020.53 1020.61 1020.78 1021.08 1021.26 1020.78 1021.10 1021.35 1022.02 1022.46 1022.39 1022.48 1022.12 1022.56 1022.98 1022.95 1023.02 1022.96 1022.72 1022.14 1021.66 1021.15 1020.60 1019.95 1019.46 1018.93 1018.12 1017.24 1016.11 1015.36 1015.49 1015.77 1015.98 1016.32 1016.80 1017.40 1017.63 1018.00 1018.89 1019.41 1019.68 1020.20
1021.04 1020.67 1020.48 1020.41 1020.24 1020.53 1020.87 1021.20 1021.91 1022.35 1023.00 1023.52 1023.42 1024.13 1022.25 1022.66 1023.25 1023.59 1023.61 1023.47 1023.33 1023.02 1022.51 1021.99 1021.53 1020.97 1020.43 1019.70 1018.95 1018.10 1017.18 1016.66 1016.41 1016.38 1016.49 1016.60 1016.90 1017.19 1017.73 1018.19 1018.74 1019.43 1019.75 1020.25
1021.25 1020.73 1020.45 1020.07 1019.80 1020.24 1020.80 1021.81 1023.13 1024.17 1024.81 1025.13 1023.63 1023.80 1022.45 1022.63 1022.57 1023.58 1023.88 1023.87 1023.71 1023.49 1023.19 1022.73 1022.33 1021.69 1021.02 1020.38 1019.63 1018.92 1018.19 1017.95 1017.54 1017.15 1017.03 1017.05 1017.20 1017.45 1017.95 1018.37 1018.79 1019.49 1019.86 1020.23
1021.50 1020.70 1020.15 1020.03 1020.20 1020.48 1021.23 1022.77 1025.11 1026.22 1026.97 1025.65 1024.24 1024.14 1021.80 1022.16 1022.54 1023.32 1023.95 1024.06 1024.03 1023.87 1023.63 1023.31 1022.82 1022.34 1021.75 1021.06 1020.47 1019.85 1019.32 1018.92 1018.68 1018.28 1017.94 1017.72 1017.53 1017.71 1017.88 1018.05 1018.58 1019.21 1019.81 1020.08
1022.54 1021.41 1020.54 1020.30 1020.27 1020.56 1021.58 1022.89 1025.24 1026.45 1027.46 1026.42 1025.03 1023.67 1022.20 1022.46 1022.94 1023.57 1024.04 1024.34 1024.35 1024.14 1023.94 1023.85 1023.55 1023.20 1022.71 1022.11 1021.41 1020.77 1020.30 1019.95 1019.60 1019.11 1018.80 1018.55 1018.25 1018.06 1018.04 1018.10 1018.38 1018.81 1019.13 1019.42
1023.21 1022.21 1021.03 1020.71 1020.61 1020.85 1022.00 1022.94 1023.75 1026.17 1028.13 1027.24 1024.97 1023.47 1022.86 1022.98 1023.46 1023.79 1024.13 1024.42 1024.54 1024.52 1024.31 1024.19 1023.94 1023.72 1023.40 1022.83 1022.32 1021.77 1021.20 1020.69 1020.26 1019.91 1019.45 1019.24 1018.95 1018.77 1018.59 1018.46 1018.42 1018.55 1018.90 1019.05
1023.63 1023.29 1021.85 1021.50 1021.37 1021.46 1021.55 1022.60 1024.10 1025.68 1027.12 1027.22 1025.09 1024.20 1022.83 1023.01 1023.42 1023.96 1024.29 1024.40 1024.52 1024.54 1024.47 1024.37 1024.22 1023.95 1023.66 1023.31 1022.87 1022.28 1021.70 1021.35 1020.85 1020.54 1020.02 1019.75 1019.54 1019.29 1018.89 1018.60 1018.43 1018.53 1018.61 1018.60
1024.11 1024.34 1023.36 1022.89 1022.60 1022.37 1022.62 1023.03 1024.13 1024.95 1025.86 1026.41 1025.92 1023.55 1022.34 1022.19 1022.93 1023.83 1024.27 1024.44 1024.47 1024.55 1024.49 1024.41 1024.29 1024.13 1023.86 1023.57 1023.18 1022.79 1022.32 1021.72 1021.21 1020.89 1020.44 1020.02 1019.78 1019.42 1019.20 1018.86 1018.69 1018.67 1018.64 1018.73
1024.77 1025.24 1025.31 1024.48 1024.06 1023.91 1023.79 1023.90 1024.51 1025.68 1026.41 1026.43 1025.95 1023.73 1022.81 1022.10 1022.81 1023.60 1024.10 1024.25 1024.35 1024.36 1024.30 1024.22 1024.13 1024.04 1024.00 1023.83 1023.47 1023.12 1022.68 1022.20 1021.62 1021.20 1020.82 1020.27 1020.01 1019.79 1019.50 1019.40 1019.09 1018.77 1018.76 1018.76
1025.64 1026.47 1027.19 1026.31 1025.74 1025.02 1024.82 1025.09 1025.75 1026.59 1027.16 1027.06 1026.98 1024.36 1023.82 1023.60 1023.85 1024.11 1024.32 1024.35 1024.25 1024.11 1023.98 1023.91 1023.88 1023.80 1023.80 1023.65 1023.44 1023.13 1022.77 1022.35 1021.95 1021.49 1020.93 1020.67 1020.10 1019.98 1019.92 1019.63 1019.32 1018.92 1018.68 1018.61
1026.39 1027.85 1028.29 1028.16 1027.39 1026.69 1026.22 1026.14 1026.61 1027.35 1028.51 1027.93 1026.43 1025.39 1024.69 1024.64 1024.64 1024.57 1024.27 1024.18 1024.16 1023.90 1023.73 1023.71 1023.70 1023.61 1023.60 1023.39 1023.27 1023.07 1022.72 1022.38 1021.99 1021.71 1021.38 1021.09 1020.52 1020.01 1019.93 1019.84 1019.38 1019.01 1018.67 1018.58
1027.88 1029.33 1029.39 1029.02 1028.64 1027.81 1026.81 1026.89 1027.10 1027.76 1028.22 1028.25 1026.13 1025.98 1025.30 1024.94 1024.77 1024.62 1024.31 1024.15 1024.00 1023.87 1023.77 1023.72 1023.64 1023.46 1023.43 1023.30 1023.11 1022.86 1022.70 1022.41 1022.09 1021.95 1021.95 1021.61 1020.86 1020.29 1019.75 1019.60 1019.42 1018.92 1018.67 1018.41
1028.96 1029.89 1030.50 1030.36 1029.20 1028.27 1026.87 1026.97 1026.90 1026.97 1027.54 1027.47 1026.80 1024.84 1024.23 1024.07 1024.28 1024.28 1024.29 1024.06 1023.84 1023.75 1023.66 1023.41 1023.36 1023.20 1023.05 1023.00 1023.03 1022.90 1022.63 1022.47 1022.24 1022.36 1022.29 1021.75 1021.10 1020.46 1019.99 1019.54 1019.33 1019.07 1018.56 1018.43
1029.73 1030.51 1031.64 1031.74 1030.76 1029.33 1026.97 1025.22 1025.22 1025.91 1025.87 1025.97 1025.96 1023.59 1023.82 1024.01 1024.24 1024.21 1023.82 1023.62 1023.55 1023.44 1023.21 1022.96 1022.89 1022.68 1022.55 1022.43 1022.27 1022.70 1022.61 1022.46 1022.66 1022.55 1022.42 1021.87 1021.34 1020.92 1020.24 1019.72 1019.40 1019.06 1018.64 1018.25
1029.63 1030.81 1031.60 1032.61 1031.87 1029.88 1025.38 1024.48 1024.39 1024.70 1024.54 1024.47 1024.46 1023.53 1023.09 1023.63 1023.32 1023.18 1022.88 1023.08 1022.99 1022.74 1022.48 1022.28 1022.16 1021.90 1021.80 1021.52 1021.79 1022.14 1022.38 1022.38 1022.42 1022.30 1022.14 1021.75 1021.35 1021.27 1020.29 1020.01 1019.60 1019.12 1018.62 1018.14
1029.12 1030.07 1031.43 1032.32 1032.15 1028.32 1024.84 1024.03 1024.01 1024.28 1023.19 1023.46 1023.32 1022.81 1022.67 1022.51 1022.80 1021.84 1021.77 1021.92 1021.99 1021.81 1021.65 1021.54 1021.23 1021.10 1020.98 1021.06 1021.06 1021.74 1021.96 1022.02 1022.07 1021.77 1021.49 1021.29 1020.95 1020.94 1020.47 1020.18 1019.73 1019.22 1018.60 1017.91
1029.35 1029.43 1030.34 1031.58 1031.07 1028.38 1024.21 1023.23 1022.93 1023.39 1022.63 1021.81 1021.97 1022.10 1022.25 1022.25 1022.43 1021.41 1021.05 1021.15 1021.24 1021.11 1021.14 1020.98 1020.62 1020.85 1020.97 1020.43 1020.79 1021.45 1021.43 1021.48 1021.56 1021.01 1020.73 1020.29 1020.34 1020.37 1020.27 1019.88 1019.53 1019.10 1018.51 1017.67
1029.70 1029.78 1029.41 1029.38 1029.15 1026.12 1023.36 1022.88 1022.87 1023.41 1022.36 1021.40 1021.50 1021.66 1021.72 1021.80 1021.65 1020.67 1020.46 1020.50 1020.44 1020.36 1020.31 1020.17 1020.44 1020.56 1019.85 1019.70 1020.26 1020.69 1020.64 1020.75 1019.88 1019.93 1019.88 1019.85 1019.71 1019.62 1019.60 1019.35 1019.28 1018.73 1018.12 1017.46
1028.73 1029.33 1029.45 1029.32 1028.35 1025.44 1022.82 1022.61 1022.80 1021.78 1021.18 1021.30 1021.31 1021.21 1020.91 1020.79 1020.61 1020.47 1020.08 1019.96 1019.82 1019.79 1019.63 1019.43 1019.98 1019.62 1018.88 1019.12 1019.51 1019.50 1019.56 1018.69 1019.02 1019.24 1019.41 1019.40 1019.32 1019.27 1019.25 1019.09 1018.56 1018.18 1017.64 1017.07
1027.60 1026.40 1026.72 1026.61 1024.39 1022.78 1022.22 1021.79 1021.41 1021.58 1021.44 1021.33 1021.00 1020.70 1020.68 1020.76 1020.56 1020.35 1020.07 1019.69 1019.40 1019.33 1019.08 1018.72 1018.89 1018.68 1018.12 1018.23 1018.71 1018.66 1017.91 1018.21 1018.49 1018.79 1018.83 1019.02 1018.98 1018.89 1018.74 1018.51 1017.93 1017.46 1016.90 1016.56
1025.77 1025.22 1025.42 1025.04 1022.20 1022.34 1022.08 1021.51 1021.45 1021.54 1021.50 1021.33 1021.43 1021.48 1021.47 1021.40 1021.03 1020.73 1020.48 1020.05 1019.81 1019.48 1019.33 1019.09 1018.92 1018.38 1017.66 1017.20 1017.42 1017.20 1017.04 1017.25 1017.85 1018.13 1018.22 1018.25 1018.41 1018.23 1018.07 1017.85 1017.51 1016.98 1016.48 1015.81
1024.39 1024.85 1024.46 1023.18 1021.99 1022.06 1021.51 1021.58 1022.02 1022.01 1022.07 1022.16 1022.33 1022.48 1022.40 1022.21 1021.81 1021.60 1021.10 1020.71 1020.46 1020.22 1019.91 1019.80 1019.37 1018.72 1017.84 1017.25 1017.21 1017.19 1016.91 1017.07 1017.41 1017.59 1017.57 1017.70 1017.77 1017.63 1017.49 1017.08 1016.71 1016.19 1015.36 1014.65
1024.06 1024.18 1024.26 1022.97 1022.67 1022.74 1021.91 1022.45 1022.79 1022.78 1022.83 1023.00 1023.11 1022.90 1023.00 1023.05 1022.63 1022.27 1021.80 1021.51 1021.30 1020.90 1020.64 1020.18 1019.64 1019.07 1018.15 1017.79 1017.56 1017.58 1017.08 1017.12 1017.39 1017.42 1017.29 1017.14 1017.16 1017.06 1016.94 1016.56 1015.83 1015.09 1014.11 1013.28
Thickness
5511 5504 5500 5504 5501 5515 5512 5506 5498 5492 5501 5503 5504 5495 5490 5489 5491 5491 5493 5496 5504 5514 5519 5526 5533 5542 5552 5562 5572 5579 5589 5588 5586 5586 5586 5583 5584 5584 5584 5584 5584 5583 5583 5581
5497 5495 5504 5505 5497 5498 5498 5496 5489 5493 5498 5500 5493 5490 5488 5487 5482 5480 5482 5486 5491 5500 5509 5515 5519 5527 5536 5544 5553 5564 5571 5578 5579 5578 5577 5577 5576 5575 5575 5577 5577 5576 5574 5573
5488 5507 5498 5496 5492 5490 5489 5488 5485 5489 5489 5492 5480 5484 5487 5477 5476 5476 5474 5472 5479 5484 5492 5498 5506 5513 5522 5529 5537 5547 5555 5566 5569 5567 5566 5564 5564 5563 5564 5565 5567 5568 5566 5566
5479 5489 5493 5491 5488 5484 5480 5483 5483 5485 5476 5457 5476 5436 5477 5466 5462 5463 5462 5462 5466 5473 5479 5485 5492 5500 5506 5512 5522 5532 5545 5555 5556 5555 5556 5558 5558 5555 5557 5559 5558 5559 5558 5557
5484 5489 5483 5481 5482 5477 5479 5478 5476 5478 5457 5455 5462 5421 5464 5456 5457 5454 5451 5454 5455 5461 5466 5472 5476 5483 5489 5498 5506 5516 5527 5535 5540 5542 5543 5545 5548 5549 5547 5547 5549 5549 5547 5547
5465 5471 5479 5479 5481 5473 5473 5469 5445 5433 5433 5370 5449 5447 5462 5453 5458 5447 5447 5444 5446 5448 5453 5459 5464 5471 5477 5483 5492 5501 5509 5514 5521 5527 5530 5532 5536 5537 5536 5535 5537 5537 5538 5538
5460 5466 5471 5473 5471 5466 5461 5440 5364 5366 5342 5395 5434 5434 5458 5452 5444 5441 5435 5437 5435 5437 5440 5445 5452 5457 5463 5471 5477 5484 5491 5497 5502 5508 5513 5518 5523 5526 5528 5529 5528 5527 5527 5528
5425 5435 5461 5462 5460 5454 5441 5431 5378 5356 5361 5397 5429 5424 5456 5437 5433 5428 5428 5427 5425 5427 5429 5432 5436 5440 5446 5454 5461 5468 5474 5479 5485 5491 5496 5502 5508 5513 5516 5519 5520 5520 5522 5522
5406 5430 5443 5448 5445 5447 5432 5410 5425 5354 5322 5355 5416 5428 5432 5423 5418 5416 5417 5417 5415 5415 5417 5420 5423 5426 5431 5438 5444 5450 5458 5465 5470 5475 5481 5485 5491 5496 5501 5506 5510 5512 5513 5516
5409 5399 5430 5429 5430 5427 5429 5423 5399 5363 5355 5363 5386 5401 5432 5415 5408 5403 5405 5408 5407 5405 5406 5409 5411 5415 5418 5422 5428 5436 5443 5449 5456 5461 5467 5472 5476 5481 5488 5495 5499 5501 5505 5509
5395 5392 5411 5411 5410 5411 5393 5386 5386 5393 5374 5347 5334 5398 5419 5417 5405 5392 5389 5389 5390 5392 5392 5394 5397 5401 5405 5409 5415 5421 5427 5435 5443 5448 5454 5460 5464 5469 5475 5481 5486 5490 5494 5497
5382 5368 5351 5384 5381 5377 5381 5386 5381 5360 5363 5354 5353 5397 5385 5396 5385 5379 5375 5377 5374 5376 5378 5380 5382 5386 5390 5395 5401 5405 5412 5419 5428 5435 5440 5447 5453 5457 5461 5465 5471 5479 5482 5487
5359 5319 5286 5339 5351 5362 5365 5363 5350 5316 5323 5334 5321 5387 5368 5366 5365 5364 5357 5351 5357 5362 5366 5369 5371 5375 5378 5383 5388 5392 5398 5405 5411 5419 5428 5433 5440 5444 5447 5452 5458 5465 5472 5476
5347 5309 5300 5318 5335 5324 5338 5343 5334 5298 5275 5292 5328 5318 5347 5346 5342 5343 5346 5345 5347 5351 5352 5354 5356 5360 5363 5369 5373 5378 5385 5391 5397 5403 5410 5417 5426 5433 5435 5439 5446 5452 5460 5465
5312 5284 5275 5280 5297 5308 5317 5316 5314 5284 5269 5284 5333 5301 5289 5314 5316 5316 5319 5329 5333 5335 5335 5336 5340 5342 5346 5350 5355 5360 5366 5374 5381 5386 5390 5397 5408 5417 5424 5428 5432 5440 5446 5454
5288 5271 5276 5251 5293 5299 5309 5304 5298 5303 5291 5282 5299 5311 5327 5326 5314 5314 5307 5307 5317 5311 5314 5318 5322 5326 5334 5338 5338 5340 5346 5353 5360 5364 5370 5378 5389 5400 5409 5416 5420 5425 5434 5440
5266 5253 5222 5215 5260 5261 5266 5300 5304 5280 5274 5274 5258 5313 5306 5289 5290 5279 5294 5298 5297 5297 5296 5303 5305 5309 5317 5324 5327 5325 5330 5335 5339 5345 5353 5361 5370 5380 5391 5400 5407 5414 5421 5429
5246 5244 5226 5193 5207 5199 5308 5305 5297 5285 5291 5279 5270 5286 5297 5261 5276 5276 5284 5277 5280 5280 5285 5288 5291 5295 5301 5309 5307 5309 5312 5316 5320 5327 5336 5345 5354 5362 5374 5382 5391 5400 5409 5418
5263 5258 5225 5200 5157 5251 5302 5290 5271 5255 5284 5272 5267 5276 5276 5274 5263 5282 5279 5266 5262 5265 5266 5267 5276 5280 5284 5290 5291 5289 5292 5294 5299 5313 5320 5331 5339 5348 5359 5367 5373 5383 5395 5407
5252 5258 5249 5176 5186 5182 5287 5288 5275 5259 5257 5274 5261 5263 5260 5257 5244 5265 5262 5245 5245 5242 5242 5245 5251 5246 5254 5270 5262 5268 5276 5277 5281 5297 5306 5316 5325 5332 5341 5352 5360 5368 5381 5395
5237 5222 5242 5241 5222 5223 5271 5271 5258 5210 5240 5262 5257 5251 5248 5244 5238 5250 5252 5244 5230 5231 5233 5230 5227 5235 5246 5247 5246 5253 5257 5264 5272 5282 5288 5296 5307 5317 5324 5337 5345 5356 5368 5381
5217 5192 5176 5159 5167 5212 5257 5248 5234 5244 5250 5246 5242 5237 5240 5241 5239 5235 5235 5233 5230 5228 5230 5229 5223 5228 5239 5232 5233 5241 5244 5256 5255 5264 5270 5277 5287 5298 5307 5318 5332 5343 5356 5370
5211 5227 5207 5195 5216 5237 5227 5230 5229 5214 5225 5229 5230 5233 5225 5224 5224 5224 5226 5225 5225 5224 5228 5226 5222 5227 5231 5228 5226 5232 5244 5236 5239 5244 5250 5256 5266 5277 5288 5302 5317 5331 5346 5358
5216 5196 5202 5197 5250 5224 5221 5221 5215 5212 5209 5212 5206 5200 5196 5194 5200 5205 5206 5208 5207 5210 5210 5211 5209 5216 5224 5229 5225 5229 5231 5226 5226 5227 5231 5239 5248 5259 5270 5284 5298 5314 5330 5346
5227 5200 5190 5206 5233 5215 5219 5204 5193 5193 5190 5185 5180 5175 5172 5172 5177 5178 5183 5184 5185 5186 5187 5185 5190 5196 5208 5215 5212 5210 5212 5212 5212 5212 5216 5222 5230 5241 5253 5268 5283 5300 5320 5337
5207 5210 5199 5202 5209 5186 5200 5178 5169 5167 5164 5160 5156 5155 5152 5149 5153 5154 5158 5158 5157 5160 5161 5165 5169 5174 5185 5189 5191 5190 5191 5192 5192 5198 5202 5206 5211 5221 5234 5250 5269 5289 5311 5330